Limon, CO

3:49 PM MST on January 22, 2018 (GMT -0700)
Limon Municipal

Weather History for KLIC - February, 2014

Change the Weather History Date:

Wednesday, February 26, 2014

  Actual Average Record
Temperature  
Mean Temperature 25 °F -  
Max Temperature 46 °F - 62 °F (2006)
Min Temperature 3 °F - -3 °F (2013)
Degree Days  
Heating Degree Days 40    
Month to date heating degree days 1091  
Cooling Degree Days 0    
Month to date cooling degree days 0  
Moisture  
Dew Point 11 °F    
Average Humidity 59    
Maximum Humidity 92    
Minimum Humidity 25    
Precipitation  
Precipitation 0.00 in - 0.11 in (2015)
Month to date precipitation 0.19  
Year to date precipitation 1.17  
Sea Level Pressure  
Sea Level Pressure 30.14 in    
Wind  
Wind Speed 4 mph (NNW)    
Max Wind Speed 16 mph    
Max Gust Speed 22 mph    
Visibility 10 miles    
Events      
T = Trace of Precipitation, MM = Missing Value Source: NWS Daily Summary

Daily Weather History Graph

Daily Weather History Graph

Search for Another Location

Airport or City:

Trip Planner

Search our weather history database for the weather conditions in past years. The results will help you decide how hot, cold, wet, or windy it might be!

Date:

Astronomy

Feb. 26, 2014 Rise Set
Actual Time 6:31 AM MST 5:43 PM MST
Civil Twilight 6:04 AM MST 6:10 PM MST
Nautical Twilight 5:33 AM MST 6:42 PM MST
Astronomical Twilight 5:02 AM MST 7:13 PM MST
Moon 4:18 AM MST (2/26) 3:02 PM MST (2/26)
Length of Visible Light 12h 06m
Length of Day
11h 12m
Waning Crescent, 9% of the Moon is Illuminated
Feb 26
Waning Crescent
Mar 1
New
Mar 8
First Quarter
Mar 16
Full
Mar 23
Last Quarter

Hourly Weather History & Observations

Time (MST) Temp. Windchill Dew Point Humidity Pressure Visibility Wind Dir Wind Speed Gust Speed Precip Events Conditions
12:55 AM 9.0 °F 2.4 °F 5.0 °F 84% 30.32 in 10.0 mi NNW 3.5 mph - N/A   Mostly Cloudy
1:55 AM 6.1 °F -2.8 °F 3.0 °F 87% 30.36 in 10.0 mi SW 4.6 mph - N/A   Clear
2:55 AM 8.1 °F -4.3 °F 3.9 °F 83% 30.31 in 10.0 mi South 8.1 mph - N/A   Clear
3:55 AM 10.9 °F -4.1 °F 7.0 °F 84% 30.26 in 10.0 mi SW 12.7 mph - N/A   Clear
4:55 AM 10.0 °F - 5.0 °F 80% 30.25 in 10.0 mi Calm Calm - N/A   Clear
5:55 AM 6.1 °F -0.9 °F 3.0 °F 87% 30.23 in 10.0 mi ESE 3.5 mph - N/A   Clear
6:55 AM 5.0 °F - 1.9 °F 87% 30.22 in 10.0 mi Calm Calm - N/A   Clear
7:55 AM 15.1 °F - 10.0 °F 80% 30.21 in 10.0 mi Calm Calm - N/A   Clear
8:55 AM 21.0 °F - 14.0 °F 74% 30.19 in 10.0 mi Calm Calm - N/A   Clear
9:55 AM 30.0 °F - 19.9 °F 66% 30.16 in 10.0 mi Calm Calm - N/A   Clear
10:55 AM 41.0 °F 35.2 °F 16.0 °F 36% 30.11 in 10.0 mi NE 9.2 mph - N/A   Clear
11:55 AM 42.1 °F 35.7 °F 15.1 °F 34% 30.09 in 10.0 mi North 11.5 mph 19.6 mph N/A   Clear
12:55 PM 42.1 °F 36.1 °F 12.9 °F 31% 30.07 in 10.0 mi North 10.4 mph - N/A   Clear
1:55 PM 44.1 °F 40.8 °F 14.0 °F 30% 30.06 in 10.0 mi Variable 5.8 mph - N/A   Clear
2:55 PM 44.1 °F 39.0 °F 10.9 °F 26% 30.04 in 10.0 mi NNW 9.2 mph - N/A   Clear
3:55 PM 45.0 °F 41.2 °F 12.0 °F 26% 30.02 in 10.0 mi North 6.9 mph - N/A   Clear
4:55 PM 45.0 °F - 12.0 °F 26% 30.02 in 10.0 mi Calm Calm - N/A   Clear
5:55 PM 30.0 °F 22.4 °F 15.1 °F 54% 30.11 in 10.0 mi ENE 8.1 mph - N/A   Clear
6:55 PM 28.0 °F 24.2 °F 15.1 °F 58% 30.13 in 10.0 mi SW 3.5 mph - N/A   Clear
7:55 PM 21.9 °F - 16.0 °F 78% 30.12 in 10.0 mi Calm Calm - N/A   Clear
8:55 PM 18.0 °F - 15.1 °F 88% 30.12 in 10.0 mi Calm Calm - N/A   Clear
9:55 PM 18.0 °F - 15.1 °F 88% 30.07 in 10.0 mi Calm Calm - N/A   Clear
10:55 PM 18.0 °F - 14.0 °F 84% 30.00 in 10.0 mi Calm Calm - N/A   Clear
11:55 PM 17.1 °F - 14.0 °F 88% 29.99 in 10.0 mi Calm Calm - N/A   Clear